owner,sensor,date,latitude,longitude,vertical_datum,wind_speed,wind_to_direction,wind_speed_of_gust,qcFlag 
WAVCIS,ioos:station:WAVCIS:CSI06:1,2009-08-01T00:00:00Z,28.8667,-90.4833,10.0,5.655,246.0,,'11111222,11111222,99999999' 
WAVCIS,ioos:station:WAVCIS:CSI06:1,2009-08-01T01:00:00Z,28.8667,-90.4833,10.0,4.964,249.0,,'11111222,11111222,99999999' 
WAVCIS,ioos:station:WAVCIS:CSI06:1,2009-08-01T02:00:00Z,28.8667,-90.4833,10.0,4.368,247.0,,'11111222,11111222,99999999' 
WAVCIS,ioos:station:WAVCIS:CSI06:1,2009-08-01T03:00:00Z,28.8667,-90.4833,10.0,3.838,240.0,,'11111222,11111222,99999999' 
WAVCIS,ioos:station:WAVCIS:CSI06:1,2009-08-01T04:00:00Z,28.8667,-90.4833,10.0,4.497,223.0,,'11111222,11111222,99999999' 
WAVCIS,ioos:station:WAVCIS:CSI06:1,2009-08-01T05:00:00Z,28.8667,-90.4833,10.0,4.837,190.0,,'11111222,11111222,99999999' 
WAVCIS,ioos:station:WAVCIS:CSI06:1,2009-08-01T06:00:00Z,28.8667,-90.4833,10.0,4.216,205.0,,'11111222,11111222,99999999' 
WAVCIS,ioos:station:WAVCIS:CSI06:1,2009-08-01T07:00:00Z,28.8667,-90.4833,10.0,4.515,211.0,,'11111222,11111222,99999999' 
WAVCIS,ioos:station:WAVCIS:CSI06:1,2009-08-01T08:00:00Z,28.8667,-90.4833,10.0,6.618,222.0,,'11111222,11111222,99999999' 
WAVCIS,ioos:station:WAVCIS:CSI06:1,2009-08-01T09:00:00Z,28.8667,-90.4833,10.0,6.171,228.0,,'11111222,11111222,99999999' 
WAVCIS,ioos:station:WAVCIS:CSI06:1,2009-08-01T10:00:00Z,28.8667,-90.4833,10.0,6.374,225.0,,'11111222,11111222,99999999' 
WAVCIS,ioos:station:WAVCIS:CSI06:1,2009-08-01T11:00:00Z,28.8667,-90.4833,10.0,5.382,225.0,,'11111222,11111222,99999999' 
WAVCIS,ioos:station:WAVCIS:CSI06:1,2009-08-01T12:00:00Z,28.8667,-90.4833,10.0,4.984,238.0,,'11111222,11111222,99999999' 
WAVCIS,ioos:station:WAVCIS:CSI06:1,2009-08-01T13:00:00Z,28.8667,-90.4833,10.0,4.483,232.0,,'11111222,11111222,99999999' 
WAVCIS,ioos:station:WAVCIS:CSI06:1,2009-08-01T14:00:00Z,28.8667,-90.4833,10.0,4.181,229.0,,'11111222,11111222,99999999' 
WAVCIS,ioos:station:WAVCIS:CSI06:1,2009-08-01T15:00:00Z,28.8667,-90.4833,10.0,4.728,221.0,,'11111222,11111222,99999999' 
WAVCIS,ioos:station:WAVCIS:CSI06:1,2009-08-01T16:00:00Z,28.8667,-90.4833,10.0,4.871,214.0,,'11111222,11111222,99999999' 
WAVCIS,ioos:station:WAVCIS:CSI06:1,2009-08-01T17:00:00Z,28.8667,-90.4833,10.0,4.805,211.0,,'11111222,11111222,99999999' 
WAVCIS,ioos:station:WAVCIS:CSI06:1,2009-08-01T18:00:00Z,28.8667,-90.4833,10.0,5.752,223.0,,'11111222,11111222,99999999' 
WAVCIS,ioos:station:WAVCIS:CSI06:1,2009-08-01T19:00:00Z,28.8667,-90.4833,10.0,6.426,224.0,,'11111222,11111222,99999999' 
WAVCIS,ioos:station:WAVCIS:CSI06:1,2009-08-01T20:00:00Z,28.8667,-90.4833,10.0,5.857,243.0,,'11111222,11111222,99999999' 
WAVCIS,ioos:station:WAVCIS:CSI06:1,2009-08-01T21:00:00Z,28.8667,-90.4833,10.0,5.323,240.0,,'11111222,11111222,99999999' 
WAVCIS,ioos:station:WAVCIS:CSI06:1,2009-08-01T22:00:00Z,28.8667,-90.4833,10.0,5.021,246.0,,'11111222,11111222,99999999' 
WAVCIS,ioos:station:WAVCIS:CSI06:1,2009-08-01T23:00:00Z,28.8667,-90.4833,10.0,4.983,236.0,,'11111222,11111222,99999999' 
WAVCIS,ioos:station:WAVCIS:CSI06:1,2009-08-02T00:00:00Z,28.8667,-90.4833,10.0,4.554,239.0,,'11111222,11111222,99999999' 
WAVCIS,ioos:station:WAVCIS:CSI06:1,2009-08-02T01:00:00Z,28.8667,-90.4833,10.0,4.336,221.0,,'11111222,11111222,99999999' 
WAVCIS,ioos:station:WAVCIS:CSI06:1,2009-08-02T02:00:00Z,28.8667,-90.4833,10.0,5.188,227.0,,'11111222,11111222,99999999' 
WAVCIS,ioos:station:WAVCIS:CSI06:1,2009-08-02T03:00:00Z,28.8667,-90.4833,10.0,4.93,217.0,,'11111222,11111222,99999999' 
WAVCIS,ioos:station:WAVCIS:CSI06:1,2009-08-02T04:00:00Z,28.8667,-90.4833,10.0,4.69,224.0,,'11111222,11111222,99999999' 
WAVCIS,ioos:station:WAVCIS:CSI06:1,2009-08-02T05:00:00Z,28.8667,-90.4833,10.0,4.885,231.0,,'11111222,11111222,99999999' 
WAVCIS,ioos:station:WAVCIS:CSI06:1,2009-08-02T06:00:00Z,28.8667,-90.4833,10.0,4.678,226.0,,'11111222,11111222,99999999' 
WAVCIS,ioos:station:WAVCIS:CSI06:1,2009-08-02T07:00:00Z,28.8667,-90.4833,10.0,5.287,230.0,,'11111222,11111222,99999999' 
WAVCIS,ioos:station:WAVCIS:CSI06:1,2009-08-02T08:00:00Z,28.8667,-90.4833,10.0,5.371,242.0,,'11111222,11111222,99999999' 
WAVCIS,ioos:station:WAVCIS:CSI06:1,2009-08-02T09:00:00Z,28.8667,-90.4833,10.0,6.487,224.0,,'11111222,11111222,99999999' 
WAVCIS,ioos:station:WAVCIS:CSI06:1,2009-08-02T10:00:00Z,28.8667,-90.4833,10.0,6.307,221.0,,'11111222,11111222,99999999' 
WAVCIS,ioos:station:WAVCIS:CSI06:1,2009-08-02T11:00:00Z,28.8667,-90.4833,10.0,5.316,239.0,,'11111222,11111222,99999999' 
WAVCIS,ioos:station:WAVCIS:CSI06:1,2009-08-02T12:00:00Z,28.8667,-90.4833,10.0,5.019,255.0,,'11111222,11111222,99999999' 
WAVCIS,ioos:station:WAVCIS:CSI06:1,2009-08-02T13:00:00Z,28.8667,-90.4833,10.0,3.658,256.0,,'11111222,11111222,99999999' 
WAVCIS,ioos:station:WAVCIS:CSI06:1,2009-08-02T14:00:00Z,28.8667,-90.4833,10.0,3.642,269.0,,'11111222,11111222,99999999' 
WAVCIS,ioos:station:WAVCIS:CSI06:1,2009-08-02T15:00:00Z,28.8667,-90.4833,10.0,3.208,257.0,,'11111222,11111222,99999999' 
WAVCIS,ioos:station:WAVCIS:CSI06:1,2009-08-02T16:00:00Z,28.8667,-90.4833,10.0,3.824,261.0,,'11111222,11111222,99999999' 
WAVCIS,ioos:station:WAVCIS:CSI06:1,2009-08-02T17:00:00Z,28.8667,-90.4833,10.0,3.777,249.0,,'11111222,11111222,99999999' 
WAVCIS,ioos:station:WAVCIS:CSI06:1,2009-08-02T18:00:00Z,28.8667,-90.4833,10.0,4.265,246.0,,'11111222,11111222,99999999' 
WAVCIS,ioos:station:WAVCIS:CSI06:1,2009-08-02T19:00:00Z,28.8667,-90.4833,10.0,4.393,257.0,,'11111222,11111222,99999999' 
WAVCIS,ioos:station:WAVCIS:CSI06:1,2009-08-02T20:00:00Z,28.8667,-90.4833,10.0,4.179,248.0,,'11111222,11111222,99999999' 
WAVCIS,ioos:station:WAVCIS:CSI06:1,2009-08-02T21:00:00Z,28.8667,-90.4833,10.0,4.265,250.0,,'11111222,11111222,99999999' 
WAVCIS,ioos:station:WAVCIS:CSI06:1,2009-08-02T22:00:00Z,28.8667,-90.4833,10.0,7.17,333.0,,'11111222,11111222,99999999' 
WAVCIS,ioos:station:WAVCIS:CSI06:1,2009-08-02T23:00:00Z,28.8667,-90.4833,10.0,2.221,286.0,,'11111222,11111222,99999999' 
WAVCIS,ioos:station:WAVCIS:CSI06:1,2009-08-03T00:00:00Z,28.8667,-90.4833,10.0,3.071,278.0,,'11111222,11111222,99999999' 
WAVCIS,ioos:station:WAVCIS:CSI06:1,2009-08-03T01:00:00Z,28.8667,-90.4833,10.0,2.849,279.0,,'11111222,11111222,99999999' 
WAVCIS,ioos:station:WAVCIS:CSI06:1,2009-08-03T02:00:00Z,28.8667,-90.4833,10.0,2.129,295.0,,'11111222,11111222,99999999' 
WAVCIS,ioos:station:WAVCIS:CSI06:1,2009-08-03T03:00:00Z,28.8667,-90.4833,10.0,1.454,317.0,,'11111222,11111222,99999999' 
WAVCIS,ioos:station:WAVCIS:CSI06:1,2009-08-03T04:00:00Z,28.8667,-90.4833,10.0,0.468,191.0,,'11111222,11111222,99999999' 
WAVCIS,ioos:station:WAVCIS:CSI06:1,2009-08-03T05:00:00Z,28.8667,-90.4833,10.0,1.477,216.0,,'11111222,11111222,99999999' 
WAVCIS,ioos:station:WAVCIS:CSI06:1,2009-08-03T06:00:00Z,28.8667,-90.4833,10.0,2.576,221.0,,'11111222,11111222,99999999' 
WAVCIS,ioos:station:WAVCIS:CSI06:1,2009-08-03T07:00:00Z,28.8667,-90.4833,10.0,2.265,218.0,,'11111222,11111222,99999999' 
WAVCIS,ioos:station:WAVCIS:CSI06:1,2009-08-03T08:00:00Z,28.8667,-90.4833,10.0,3.078,208.0,,'11111222,11111222,99999999' 
WAVCIS,ioos:station:WAVCIS:CSI06:1,2009-08-03T09:00:00Z,28.8667,-90.4833,10.0,2.909,222.0,,'11111222,11111222,99999999' 
WAVCIS,ioos:station:WAVCIS:CSI06:1,2009-08-03T10:00:00Z,28.8667,-90.4833,10.0,3.144,213.0,,'11111222,11111222,99999999' 
WAVCIS,ioos:station:WAVCIS:CSI06:1,2009-08-03T11:00:00Z,28.8667,-90.4833,10.0,3.356,209.0,,'11111222,11111222,99999999' 
WAVCIS,ioos:station:WAVCIS:CSI06:1,2009-08-03T12:00:00Z,28.8667,-90.4833,10.0,3.169,232.0,,'11111222,11111222,99999999' 
WAVCIS,ioos:station:WAVCIS:CSI06:1,2009-08-03T13:00:00Z,28.8667,-90.4833,10.0,2.573,259.0,,'11111222,11111222,99999999' 
WAVCIS,ioos:station:WAVCIS:CSI06:1,2009-08-03T14:00:00Z,28.8667,-90.4833,10.0,2.341,262.0,,'11111222,11111222,99999999' 
WAVCIS,ioos:station:WAVCIS:CSI06:1,2009-08-03T15:00:00Z,28.8667,-90.4833,10.0,2.327,279.0,,'11111222,11111222,99999999' 
WAVCIS,ioos:station:WAVCIS:CSI06:1,2009-08-03T16:00:00Z,28.8667,-90.4833,10.0,2.234,296.0,,'11111222,11111222,99999999' 
WAVCIS,ioos:station:WAVCIS:CSI06:1,2009-08-03T17:00:00Z,28.8667,-90.4833,10.0,1.743,286.0,,'11111222,11111222,99999999' 
WAVCIS,ioos:station:WAVCIS:CSI06:1,2009-08-03T18:00:00Z,28.8667,-90.4833,10.0,1.693,273.0,,'11111222,11111222,99999999' 
WAVCIS,ioos:station:WAVCIS:CSI06:1,2009-08-03T19:00:00Z,28.8667,-90.4833,10.0,1.277,228.0,,'11111222,11111222,99999999' 
WAVCIS,ioos:station:WAVCIS:CSI06:1,2009-08-03T20:00:00Z,28.8667,-90.4833,10.0,2.068,244.0,,'11111222,11111222,99999999' 
WAVCIS,ioos:station:WAVCIS:CSI06:1,2009-08-03T21:00:00Z,28.8667,-90.4833,10.0,2.353,225.0,,'11111222,11111222,99999999' 
WAVCIS,ioos:station:WAVCIS:CSI06:1,2009-08-03T22:00:00Z,28.8667,-90.4833,10.0,1.667,240.0,,'11111222,11111222,99999999' 
WAVCIS,ioos:station:WAVCIS:CSI06:1,2009-08-03T23:00:00Z,28.8667,-90.4833,10.0,1.842,227.0,,'11111222,11111222,99999999' 
WAVCIS,ioos:station:WAVCIS:CSI06:1,2009-08-04T00:00:00Z,28.8667,-90.4833,10.0,2.07,191.0,,'11111222,11111222,99999999' 
WAVCIS,ioos:station:WAVCIS:CSI06:1,2009-08-04T01:00:00Z,28.8667,-90.4833,10.0,1.797,211.0,,'11111222,11111222,99999999' 
WAVCIS,ioos:station:WAVCIS:CSI06:1,2009-08-04T02:00:00Z,28.8667,-90.4833,10.0,2.329,184.0,,'11111222,11111222,99999999' 
WAVCIS,ioos:station:WAVCIS:CSI06:1,2009-08-04T03:00:00Z,28.8667,-90.4833,10.0,2.372,203.0,,'11111222,11111222,99999999' 
WAVCIS,ioos:station:WAVCIS:CSI06:1,2009-08-04T04:00:00Z,28.8667,-90.4833,10.0,2.381,211.0,,'11111222,11111222,99999999' 
WAVCIS,ioos:station:WAVCIS:CSI06:1,2009-08-04T05:00:00Z,28.8667,-90.4833,10.0,2.724,186.0,,'11111222,11111222,99999999' 
WAVCIS,ioos:station:WAVCIS:CSI06:1,2009-08-04T06:00:00Z,28.8667,-90.4833,10.0,4.431,187.0,,'11111222,11111222,99999999' 
WAVCIS,ioos:station:WAVCIS:CSI06:1,2009-08-04T07:00:00Z,28.8667,-90.4833,10.0,4.561,197.0,,'11111222,11111222,99999999' 
WAVCIS,ioos:station:WAVCIS:CSI06:1,2009-08-04T08:00:00Z,28.8667,-90.4833,10.0,3.879,198.0,,'11111222,11111222,99999999' 
WAVCIS,ioos:station:WAVCIS:CSI06:1,2009-08-04T09:00:00Z,28.8667,-90.4833,10.0,3.141,208.0,,'11111222,11111222,99999999' 
WAVCIS,ioos:station:WAVCIS:CSI06:1,2009-08-04T10:00:00Z,28.8667,-90.4833,10.0,1.916,215.0,,'11111222,11111222,99999999' 
WAVCIS,ioos:station:WAVCIS:CSI06:1,2009-08-04T11:00:00Z,28.8667,-90.4833,10.0,1.509,237.0,,'11111222,11111222,99999999' 
WAVCIS,ioos:station:WAVCIS:CSI06:1,2009-08-04T12:00:00Z,28.8667,-90.4833,10.0,1.044,255.0,,'11111222,11111222,99999999' 
WAVCIS,ioos:station:WAVCIS:CSI06:1,2009-08-04T13:00:00Z,28.8667,-90.4833,10.0,0.769,269.0,,'11111222,11111222,99999999' 
WAVCIS,ioos:station:WAVCIS:CSI06:1,2009-08-04T14:00:00Z,28.8667,-90.4833,10.0,0.477,109.0,,'11111222,11111222,99999999' 
WAVCIS,ioos:station:WAVCIS:CSI06:1,2009-08-04T15:00:00Z,28.8667,-90.4833,10.0,0.875,145.0,,'11111222,11111222,99999999' 
WAVCIS,ioos:station:WAVCIS:CSI06:1,2009-08-04T16:00:00Z,28.8667,-90.4833,10.0,0.907,95.0,,'11111222,11111222,99999999' 
WAVCIS,ioos:station:WAVCIS:CSI06:1,2009-08-04T17:00:00Z,28.8667,-90.4833,10.0,1.431,79.0,,'11111222,11111222,99999999' 
WAVCIS,ioos:station:WAVCIS:CSI06:1,2009-08-04T18:00:00Z,28.8667,-90.4833,10.0,1.499,94.0,,'11111222,11111222,99999999' 
WAVCIS,ioos:station:WAVCIS:CSI06:1,2009-08-04T19:00:00Z,28.8667,-90.4833,10.0,1.058,66.0,,'11111222,11111222,99999999' 
WAVCIS,ioos:station:WAVCIS:CSI06:1,2009-08-04T20:00:00Z,28.8667,-90.4833,10.0,1.541,109.0,,'11111222,11111222,99999999' 
WAVCIS,ioos:station:WAVCIS:CSI06:1,2009-08-04T21:00:00Z,28.8667,-90.4833,10.0,2.051,159.0,,'11111222,11111222,99999999' 
WAVCIS,ioos:station:WAVCIS:CSI06:1,2009-08-04T22:00:00Z,28.8667,-90.4833,10.0,2.292,154.0,,'11111222,11111222,99999999' 
WAVCIS,ioos:station:WAVCIS:CSI06:1,2009-08-04T23:00:00Z,28.8667,-90.4833,10.0,2.496,144.0,,'11111222,11111222,99999999' 
WAVCIS,ioos:station:WAVCIS:CSI06:1,2009-08-05T00:00:00Z,28.8667,-90.4833,10.0,3.31,149.0,,'11111222,11111222,99999999' 
WAVCIS,ioos:station:WAVCIS:CSI06:1,2009-08-05T01:00:00Z,28.8667,-90.4833,10.0,3.391,162.0,,'11111222,11111222,99999999' 
WAVCIS,ioos:station:WAVCIS:CSI06:1,2009-08-05T02:00:00Z,28.8667,-90.4833,10.0,3.429,167.0,,'11111222,11111222,99999999' 
WAVCIS,ioos:station:WAVCIS:CSI06:1,2009-08-05T03:00:00Z,28.8667,-90.4833,10.0,3.078,167.0,,'11111222,11111222,99999999' 
WAVCIS,ioos:station:WAVCIS:CSI06:1,2009-08-05T04:00:00Z,28.8667,-90.4833,10.0,2.815,166.0,,'11111222,11111222,99999999' 
WAVCIS,ioos:station:WAVCIS:CSI06:1,2009-08-05T05:00:00Z,28.8667,-90.4833,10.0,3.482,179.0,,'11111222,11111222,99999999' 
WAVCIS,ioos:station:WAVCIS:CSI06:1,2009-08-05T06:00:00Z,28.8667,-90.4833,10.0,4.2,177.0,,'11111222,11111222,99999999' 
WAVCIS,ioos:station:WAVCIS:CSI06:1,2009-08-05T07:00:00Z,28.8667,-90.4833,10.0,3.318,171.0,,'11111222,11111222,99999999' 
WAVCIS,ioos:station:WAVCIS:CSI06:1,2009-08-05T08:00:00Z,28.8667,-90.4833,10.0,3.574,205.0,,'11111222,11111222,99999999' 
WAVCIS,ioos:station:WAVCIS:CSI06:1,2009-08-05T09:00:00Z,28.8667,-90.4833,10.0,3.549,220.0,,'11111222,11111222,99999999' 
WAVCIS,ioos:station:WAVCIS:CSI06:1,2009-08-05T10:00:00Z,28.8667,-90.4833,10.0,2.633,256.0,,'11111222,11111222,99999999' 
WAVCIS,ioos:station:WAVCIS:CSI06:1,2009-08-05T11:00:00Z,28.8667,-90.4833,10.0,1.892,270.0,,'11111222,11111222,99999999' 
WAVCIS,ioos:station:WAVCIS:CSI06:1,2009-08-05T12:00:00Z,28.8667,-90.4833,10.0,2.66,275.0,,'11111222,11111222,99999999' 
WAVCIS,ioos:station:WAVCIS:CSI06:1,2009-08-05T13:00:00Z,28.8667,-90.4833,10.0,1.904,302.0,,'11111222,11111222,99999999' 
WAVCIS,ioos:station:WAVCIS:CSI06:1,2009-08-05T14:00:00Z,28.8667,-90.4833,10.0,2.06,317.0,,'11111222,11111222,99999999' 
WAVCIS,ioos:station:WAVCIS:CSI06:1,2009-08-05T15:00:00Z,28.8667,-90.4833,10.0,1.52,309.0,,'11111222,11111222,99999999' 
WAVCIS,ioos:station:WAVCIS:CSI06:1,2009-08-05T16:00:00Z,28.8667,-90.4833,10.0,1.52,330.0,,'11111222,11111222,99999999' 
WAVCIS,ioos:station:WAVCIS:CSI06:1,2009-08-05T17:00:00Z,28.8667,-90.4833,10.0,1.031,67.0,,'11111222,11111222,99999999' 
WAVCIS,ioos:station:WAVCIS:CSI06:1,2009-08-05T18:00:00Z,28.8667,-90.4833,10.0,0.424,122.0,,'11111222,11111222,99999999' 
WAVCIS,ioos:station:WAVCIS:CSI06:1,2009-08-05T19:00:00Z,28.8667,-90.4833,10.0,0.299,275.0,,'11111222,11111222,99999999' 
WAVCIS,ioos:station:WAVCIS:CSI06:1,2009-08-05T20:00:00Z,28.8667,-90.4833,10.0,1.248,288.0,,'11111222,11111222,99999999' 
WAVCIS,ioos:station:WAVCIS:CSI06:1,2009-08-05T21:00:00Z,28.8667,-90.4833,10.0,2.055,282.0,,'11111222,11111222,99999999' 
WAVCIS,ioos:station:WAVCIS:CSI06:1,2009-08-05T22:00:00Z,28.8667,-90.4833,10.0,2.645,220.0,,'11111222,11111222,99999999' 
WAVCIS,ioos:station:WAVCIS:CSI06:1,2009-08-05T23:00:00Z,28.8667,-90.4833,10.0,2.402,254.0,,'11111222,11111222,99999999' 
WAVCIS,ioos:station:WAVCIS:CSI06:1,2009-08-06T00:00:00Z,28.8667,-90.4833,10.0,2.783,255.0,,'11111222,11111222,99999999' 
WAVCIS,ioos:station:WAVCIS:CSI06:1,2009-08-06T01:00:00Z,28.8667,-90.4833,10.0,3.673,256.0,,'11111222,11111222,99999999' 
WAVCIS,ioos:station:WAVCIS:CSI06:1,2009-08-06T02:00:00Z,28.8667,-90.4833,10.0,2.602,268.0,,'11111222,11111222,99999999' 
WAVCIS,ioos:station:WAVCIS:CSI06:1,2009-08-06T03:00:00Z,28.8667,-90.4833,10.0,3.459,282.0,,'11111222,11111222,99999999' 
WAVCIS,ioos:station:WAVCIS:CSI06:1,2009-08-06T04:00:00Z,28.8667,-90.4833,10.0,2.424,256.0,,'11111222,11111222,99999999' 
WAVCIS,ioos:station:WAVCIS:CSI06:1,2009-08-06T05:00:00Z,28.8667,-90.4833,10.0,2.403,246.0,,'11111222,11111222,99999999' 
WAVCIS,ioos:station:WAVCIS:CSI06:1,2009-08-06T06:00:00Z,28.8667,-90.4833,10.0,13.94,86.0,,'11111222,11111222,99999999' 
WAVCIS,ioos:station:WAVCIS:CSI06:1,2009-08-06T07:00:00Z,28.8667,-90.4833,10.0,7.8,132.0,,'11111222,11111222,99999999' 
WAVCIS,ioos:station:WAVCIS:CSI06:1,2009-08-06T08:00:00Z,28.8667,-90.4833,10.0,6.863,132.0,,'11111222,11111222,99999999' 
WAVCIS,ioos:station:WAVCIS:CSI06:1,2009-08-06T09:00:00Z,28.8667,-90.4833,10.0,5.276,187.0,,'11111222,11111222,99999999' 
WAVCIS,ioos:station:WAVCIS:CSI06:1,2009-08-06T10:00:00Z,28.8667,-90.4833,10.0,6.154,214.0,,'11111222,11111222,99999999' 
WAVCIS,ioos:station:WAVCIS:CSI06:1,2009-08-06T11:00:00Z,28.8667,-90.4833,10.0,5.759,236.0,,'11111222,11111222,99999999' 
WAVCIS,ioos:station:WAVCIS:CSI06:1,2009-08-06T12:00:00Z,28.8667,-90.4833,10.0,4.645,259.0,,'11111222,11111222,99999999' 
WAVCIS,ioos:station:WAVCIS:CSI06:1,2009-08-06T13:00:00Z,28.8667,-90.4833,10.0,5.54,264.0,,'11111222,11111222,99999999' 
WAVCIS,ioos:station:WAVCIS:CSI06:1,2009-08-06T14:00:00Z,28.8667,-90.4833,10.0,5.32,264.0,,'11111222,11111222,99999999' 
WAVCIS,ioos:station:WAVCIS:CSI06:1,2009-08-06T15:00:00Z,28.8667,-90.4833,10.0,4.039,277.0,,'11111222,11111222,99999999' 
WAVCIS,ioos:station:WAVCIS:CSI06:1,2009-08-06T16:00:00Z,28.8667,-90.4833,10.0,5.927,307.0,,'11111222,11111222,99999999' 
WAVCIS,ioos:station:WAVCIS:CSI06:1,2009-08-06T17:00:00Z,28.8667,-90.4833,10.0,5.135,314.0,,'11111222,11111222,99999999' 
WAVCIS,ioos:station:WAVCIS:CSI06:1,2009-08-06T18:00:00Z,28.8667,-90.4833,10.0,5.261,325.0,,'11111222,11111222,99999999' 
WAVCIS,ioos:station:WAVCIS:CSI06:1,2009-08-06T19:00:00Z,28.8667,-90.4833,10.0,3.497,295.0,,'11111222,11111222,99999999' 
WAVCIS,ioos:station:WAVCIS:CSI06:1,2009-08-06T20:00:00Z,28.8667,-90.4833,10.0,3.405,310.0,,'11111222,11111222,99999999' 
WAVCIS,ioos:station:WAVCIS:CSI06:1,2009-08-06T21:00:00Z,28.8667,-90.4833,10.0,1.923,306.0,,'11111222,11111222,99999999' 
WAVCIS,ioos:station:WAVCIS:CSI06:1,2009-08-06T22:00:00Z,28.8667,-90.4833,10.0,2.14,324.0,,'11111222,11111222,99999999' 
WAVCIS,ioos:station:WAVCIS:CSI06:1,2009-08-06T23:00:00Z,28.8667,-90.4833,10.0,2.765,321.0,,'11111222,11111222,99999999' 
WAVCIS,ioos:station:WAVCIS:CSI06:1,2009-08-07T00:00:00Z,28.8667,-90.4833,10.0,6.089,344.0,,'11111222,11111222,99999999' 
WAVCIS,ioos:station:WAVCIS:CSI06:1,2009-08-07T01:00:00Z,28.8667,-90.4833,10.0,2.011,26.0,,'11111222,11111222,99999999' 
WAVCIS,ioos:station:WAVCIS:CSI06:1,2009-08-07T02:00:00Z,28.8667,-90.4833,10.0,0.659,34.0,,'11111222,11111222,99999999' 
WAVCIS,ioos:station:WAVCIS:CSI06:1,2009-08-07T03:00:00Z,28.8667,-90.4833,10.0,2.654,109.0,,'11111222,11111222,99999999' 
WAVCIS,ioos:station:WAVCIS:CSI06:1,2009-08-07T04:00:00Z,28.8667,-90.4833,10.0,3.425,136.0,,'11111222,11111222,99999999' 
WAVCIS,ioos:station:WAVCIS:CSI06:1,2009-08-07T05:00:00Z,28.8667,-90.4833,10.0,2.858,132.0,,'11111222,11111222,99999999' 
WAVCIS,ioos:station:WAVCIS:CSI06:1,2009-08-07T06:00:00Z,28.8667,-90.4833,10.0,3.326,142.0,,'11111222,11111222,99999999' 
WAVCIS,ioos:station:WAVCIS:CSI06:1,2009-08-07T07:00:00Z,28.8667,-90.4833,10.0,3.66,147.0,,'11111222,11111222,99999999' 
WAVCIS,ioos:station:WAVCIS:CSI06:1,2009-08-07T08:00:00Z,28.8667,-90.4833,10.0,3.034,158.0,,'11111222,11111222,99999999' 
WAVCIS,ioos:station:WAVCIS:CSI06:1,2009-08-07T09:00:00Z,28.8667,-90.4833,10.0,1.731,163.0,,'11111222,11111222,99999999' 
WAVCIS,ioos:station:WAVCIS:CSI06:1,2009-08-07T10:00:00Z,28.8667,-90.4833,10.0,1.398,143.0,,'11111222,11111222,99999999' 
WAVCIS,ioos:station:WAVCIS:CSI06:1,2009-08-07T11:00:00Z,28.8667,-90.4833,10.0,2.034,141.0,,'11111222,11111222,99999999' 
WAVCIS,ioos:station:WAVCIS:CSI06:1,2009-08-07T12:00:00Z,28.8667,-90.4833,10.0,0.482,229.0,,'11111222,11111222,99999999' 
WAVCIS,ioos:station:WAVCIS:CSI06:1,2009-08-07T13:00:00Z,28.8667,-90.4833,10.0,1.309,309.0,,'11111222,11111222,99999999' 
WAVCIS,ioos:station:WAVCIS:CSI06:1,2009-08-07T14:00:00Z,28.8667,-90.4833,10.0,2.72,14.0,,'11111222,11111222,99999999' 
WAVCIS,ioos:station:WAVCIS:CSI06:1,2009-08-07T15:00:00Z,28.8667,-90.4833,10.0,2.737,336.0,,'11111222,11111222,99999999' 
WAVCIS,ioos:station:WAVCIS:CSI06:1,2009-08-07T16:00:00Z,28.8667,-90.4833,10.0,2.064,14.0,,'11111222,11111222,99999999' 
WAVCIS,ioos:station:WAVCIS:CSI06:1,2009-08-07T17:00:00Z,28.8667,-90.4833,10.0,1.947,37.0,,'11111222,11111222,99999999' 
WAVCIS,ioos:station:WAVCIS:CSI06:1,2009-08-07T18:00:00Z,28.8667,-90.4833,10.0,1.929,16.0,,'11111222,11111222,99999999' 
WAVCIS,ioos:station:WAVCIS:CSI06:1,2009-08-07T19:00:00Z,28.8667,-90.4833,10.0,1.394,15.0,,'11111222,11111222,99999999' 
WAVCIS,ioos:station:WAVCIS:CSI06:1,2009-08-07T20:00:00Z,28.8667,-90.4833,10.0,1.979,87.0,,'11111222,11111222,99999999' 
WAVCIS,ioos:station:WAVCIS:CSI06:1,2009-08-07T21:00:00Z,28.8667,-90.4833,10.0,2.874,90.0,,'11111222,11111222,99999999' 
WAVCIS,ioos:station:WAVCIS:CSI06:1,2009-08-07T22:00:00Z,28.8667,-90.4833,10.0,3.705,106.0,,'11111222,11111222,99999999' 
WAVCIS,ioos:station:WAVCIS:CSI06:1,2009-08-07T23:00:00Z,28.8667,-90.4833,10.0,3.954,103.0,,'11111222,11111222,99999999' 
WAVCIS,ioos:station:WAVCIS:CSI06:1,2009-08-08T00:00:00Z,28.8667,-90.4833,10.0,2.345,98.0,,'11111222,11111222,99999999' 
WAVCIS,ioos:station:WAVCIS:CSI06:1,2009-08-08T01:00:00Z,28.8667,-90.4833,10.0,2.644,92.0,,'11111222,11111222,99999999' 
WAVCIS,ioos:station:WAVCIS:CSI06:1,2009-08-08T02:00:00Z,28.8667,-90.4833,10.0,2.078,95.0,,'11111222,11111222,99999999' 
WAVCIS,ioos:station:WAVCIS:CSI06:1,2009-08-08T03:00:00Z,28.8667,-90.4833,10.0,3.259,98.0,,'11111222,11111222,99999999' 
WAVCIS,ioos:station:WAVCIS:CSI06:1,2009-08-08T04:00:00Z,28.8667,-90.4833,10.0,3.141,116.0,,'11111222,11111222,99999999' 
WAVCIS,ioos:station:WAVCIS:CSI06:1,2009-08-08T05:00:00Z,28.8667,-90.4833,10.0,3.938,134.0,,'11111222,11111222,99999999' 
WAVCIS,ioos:station:WAVCIS:CSI06:1,2009-08-08T06:00:00Z,28.8667,-90.4833,10.0,4.703,140.0,,'11111222,11111222,99999999' 
WAVCIS,ioos:station:WAVCIS:CSI06:1,2009-08-08T07:00:00Z,28.8667,-90.4833,10.0,3.791,140.0,,'11111222,11111222,99999999' 
WAVCIS,ioos:station:WAVCIS:CSI06:1,2009-08-08T08:00:00Z,28.8667,-90.4833,10.0,4.405,143.0,,'11111222,11111222,99999999' 
WAVCIS,ioos:station:WAVCIS:CSI06:1,2009-08-08T09:00:00Z,28.8667,-90.4833,10.0,4.912,169.0,,'11111222,11111222,99999999' 
WAVCIS,ioos:station:WAVCIS:CSI06:1,2009-08-08T10:00:00Z,28.8667,-90.4833,10.0,3.383,151.0,,'11111222,11111222,99999999' 
WAVCIS,ioos:station:WAVCIS:CSI06:1,2009-08-08T11:00:00Z,28.8667,-90.4833,10.0,4.356,150.0,,'11111222,11111222,99999999' 
WAVCIS,ioos:station:WAVCIS:CSI06:1,2009-08-08T12:00:00Z,28.8667,-90.4833,10.0,3.496,149.0,,'11111222,11111222,99999999' 
WAVCIS,ioos:station:WAVCIS:CSI06:1,2009-08-08T13:00:00Z,28.8667,-90.4833,10.0,2.394,88.0,,'11111222,11111222,99999999' 
WAVCIS,ioos:station:WAVCIS:CSI06:1,2009-08-08T14:00:00Z,28.8667,-90.4833,10.0,0.558,37.0,,'11111222,11111222,99999999' 
WAVCIS,ioos:station:WAVCIS:CSI06:1,2009-08-08T15:00:00Z,28.8667,-90.4833,10.0,3.967,140.0,,'11111222,11111222,99999999' 
WAVCIS,ioos:station:WAVCIS:CSI06:1,2009-08-08T16:00:00Z,28.8667,-90.4833,10.0,4.201,137.0,,'11111222,11111222,99999999' 
WAVCIS,ioos:station:WAVCIS:CSI06:1,2009-08-08T17:00:00Z,28.8667,-90.4833,10.0,1.55,241.0,,'11111222,11111222,99999999' 
WAVCIS,ioos:station:WAVCIS:CSI06:1,2009-08-08T18:00:00Z,28.8667,-90.4833,10.0,0.864,231.0,,'11111222,11111222,99999999' 
WAVCIS,ioos:station:WAVCIS:CSI06:1,2009-08-08T19:00:00Z,28.8667,-90.4833,10.0,0.909,112.0,,'11111222,11111222,99999999' 
WAVCIS,ioos:station:WAVCIS:CSI06:1,2009-08-08T20:00:00Z,28.8667,-90.4833,10.0,1.63,74.0,,'11111222,11111222,99999999' 
WAVCIS,ioos:station:WAVCIS:CSI06:1,2009-08-08T21:00:00Z,28.8667,-90.4833,10.0,1.202,95.0,,'11111222,11111222,99999999' 
WAVCIS,ioos:station:WAVCIS:CSI06:1,2009-08-08T22:00:00Z,28.8667,-90.4833,10.0,1.949,122.0,,'11111222,11111222,99999999' 
WAVCIS,ioos:station:WAVCIS:CSI06:1,2009-08-08T23:00:00Z,28.8667,-90.4833,10.0,2.077,81.0,,'11111222,11111222,99999999' 
WAVCIS,ioos:station:WAVCIS:CSI06:1,2009-08-09T00:00:00Z,28.8667,-90.4833,10.0,3.335,105.0,,'11111222,11111222,99999999' 
WAVCIS,ioos:station:WAVCIS:CSI06:1,2009-08-09T01:00:00Z,28.8667,-90.4833,10.0,3.404,120.0,,'11111222,11111222,99999999' 
WAVCIS,ioos:station:WAVCIS:CSI06:1,2009-08-09T02:00:00Z,28.8667,-90.4833,10.0,4.048,126.0,,'11111222,11111222,99999999' 
WAVCIS,ioos:station:WAVCIS:CSI06:1,2009-08-09T03:00:00Z,28.8667,-90.4833,10.0,4.965,117.0,,'11111222,11111222,99999999' 
WAVCIS,ioos:station:WAVCIS:CSI06:1,2009-08-09T04:00:00Z,28.8667,-90.4833,10.0,3.919,125.0,,'11111222,11111222,99999999' 